This is the latest recevied weather packets stored in our database for station/object KY4EF. If no packets are shown the sender has not sent any weather packets the latest 10 day(s).
| Time | Temp. | Humidity | Pressure | Rain* | Wind** | Luminosity | Snow |
|---|---|---|---|---|---|---|---|
| 1778069282 | 16.11° C | 93% | 1012.6 hPa | 1.27 mm | - | 25 W/m² | - |
| 1778068980 | 16.11° C | 92% | 1012.7 hPa | 0 mm | - | 20 W/m² | - |
| 1778068677 | 16.11° C | 89% | 1012.5 hPa | 0 mm | - | 23 W/m² | - |
| 1778068376 | 16.11° C | 90% | 1012.8 hPa | 0 mm | - | 16 W/m² | - |
| 1778068073 | 16.67° C | 88% | 1012.6 hPa | 0 mm | - | 21 W/m² | - |
| 1778067770 | 17.22° C | 85% | 1012.3 hPa | 0 mm | - | 25 W/m² | - |
| 1778067469 | 17.22° C | 82% | 1012.3 hPa | 0 mm | - | 17 W/m² | - |
| 1778067166 | 17.22° C | 83% | 1012.2 hPa | 0 mm | - | 15 W/m² | - |
| 1778066862 | 17.22° C | 83% | 1012.2 hPa | 0 mm | - | 8 W/m² | - |
| 1778066560 | 17.22° C | 82% | 1012.3 hPa | 0 mm | - | 8 W/m² | - |
| 1778066257 | 17.22° C | 83% | 1012.3 hPa | 0 mm | - | 7 W/m² | - |
| 1778065955 | 17.22° C | 82% | 1011.9 hPa | 0 mm | - | 8 W/m² | - |
| 1778065651 | 17.78° C | 81% | 1012.2 hPa | 0 mm | - | 10 W/m² | - |
| 1778065350 | 17.78° C | 80% | 1012 hPa | 0 mm | - | 9 W/m² | - |
| 1778065046 | 17.78° C | 78% | 1011.9 hPa | 0 mm | - | 6 W/m² | - |
| 1778064743 | 17.78° C | 77% | 1012.2 hPa | 0 mm | - | 3 W/m² | - |
| 1778064441 | 18.33° C | 76% | 1012 hPa | 0 mm | - | 2 W/m² | - |
| 1778064138 | 17.78° C | 75% | 1011.9 hPa | 0 mm | - | 1 W/m² | - |
| 1778063835 | 17.78° C | 76% | 1011.6 hPa | 0 mm | - | 1 W/m² | - |
| 1778063532 | 17.78° C | 75% | 1011.4 hPa | 0 mm | - | 0 W/m² | - |
| 1778063230 | 17.78° C | 76% | 1011.5 hPa | 0 mm | - | 0 W/m² | - |
| 1778062928 | 18.33° C | 74% | 1011.6 hPa | 0 mm | - | 0 W/m² | - |
| 1778062624 | 18.33° C | 74% | 1011.6 hPa | 0 mm | - | 0 W/m² | - |
| 1778062321 | 18.33° C | 74% | 1011.4 hPa | 0 mm | - | 0 W/m² | - |
| 1778062019 | 17.78° C | 74% | 1011.5 hPa | 0 mm | - | 0 W/m² | - |
* Rain latest hour (hover to see other rain measurements)
** Current wind speed in m/s (hover to see current wind gust speed)